Regional Weather Roundup
Issued by NWS

Home | Current Version | Previous Version | Text Only | Print | Product List | Glossary On
Versions: 1
000
ASCA42 TJSJ 221610
RWRPR
PUERTO RICO/U.S. VIRGIN ISLANDS HOURLY WEATHER ROUNDUP
NATIONAL WEATHER SERVICE SAN JUAN PR
1200 PM AST FRI SEP 22 2017

PRZ001>002-007>008-010-221700-
PUERTO RICO

CITY           SKY/WX    TMP DP  RH WIND       PRES   REMARKS
SAN JUAN LMM     N/A     90  79  70 SE13G23   29.87  HX 105
$$

VIZ001>002-221700-
U.S. VIRGIN ISLANDS

CITY           SKY/WX    TMP DP  RH WIND       PRES   REMARKS
$$

HOURLY WEATHER ROUNDUP FOR THE NEWS MEDIA

CITY           SKY/WX    TMP DP  RH WIND       PRES   REMARKS
ORLANDO        SUNNY     86  73  65 N9        29.95F HX  93
NEW YORK       MOSUNNY   78  53  41 N17G29    29.99F
NEWARK         PTSUNNY   80  51  36 N17       30.00F
CHICAGO        MOSUNNY   89  67  47 SW12      30.07S HX  92
HARTFORD       LGT RAIN  58  56  93 N14G35    29.92S FOG
BOSTON         LGT RAIN  59  55  87 N24G37    30.01F
DALLAS         PTSUNNY   82  72  71 SE10      30.00R
PHILADELPHIA   CLOUDY    75  58  55 NW7       30.03F
LOS ANGELES    MOSUNNY   66  52  60 E7        29.88R
WASHINGTON DC  CLOUDY    79  66  64 N6        30.08F



USA.gov is the U.S. government's official web portal to all federal, state and local government web resources and services.